sat.trackr.live / text

‹ back to catalog

STARLINK-5306

NORAD 55271 · 2023-010C

PAYLOAD ACTIVE UNKNOWN

§ Identity

Operator
Country
US
Launch date
2023-01-19
Launch site
AFWTR
Launch vehicle
Mass (kg)
RCS (m²)

Purposes: comms

External: N2YO · Heavens-Above · Gunter

§ Orbital elements

Epoch: 2026-05-25T04:46:52.207104Z

Period
96.11 min
Inclination
69.9990°
Eccentricity
0.0003636
Mean motion
14.98332580 rev/d
Perigee alt
569.5 km
Apogee alt
574.6 km
Semi-major
6,950.2 km
B*
1.2637e-5
RAAN
211.6528°
Arg perigee
269.6194°
Mean anomaly
90.4549°
Rev number
18,424

§ Raw data

STARLINK-53061 55271U 23010C   26145.19921536  .00000058  00000+0  12637-4 0  99952 55271  69.9990 211.6528 0003636 269.6194  90.4549 14.98332580184247

JSON: /api/v1/satellites/55271 · /tle

For live sub-satellite position, see the globe view (requires WebGL).

§ Visibility from observer

Set your observer location to see the next 7 days of passes ≥ 10°. The values pass through the URL so the page stays shareable.

No JS? Fill the form by hand. The geolocation button needs JavaScript.